Find Optus D2

NORAD ID: 32252 Int'l Des: 2007-044 Owner: OPTS Country: AU operational
HEOCIRCULAR

Live-Position

3D-Globus wird geladen...

Über Optus D2

Beschreibung wird geladen...

Nächste Überflüge

Passes for default location (London). Set your location on the main map for personalized predictions.

Höhenverlauf

Loading altitude history...

Zweizeiliger Elementsatz

1 32252U 07044A 26105.87851990 .00000100 00000-0 00000-0 0 9991
2 32252 1.9174 82.7412 0003025 290.0647 190.0286 0.99341251 67924
Epoch: 15. Apr. 2026 • Age: 14 hours

Aktueller Status

Höhe 36039.6 km
Geschwindigkeit 3.07 km/s
Subsatellitenpunkt -0.88°S, 40.57°E
Startdatum 5. Okt. 2007
Alter 18.5 years
Typ other

Technische Details

Klassifizierung Payload
Masse 2350.00 kg
Trockenmasse 1079.00 kg
Gesamtmasse 2350.00 kg
Länge 4.20 m
Durchmesser 2.30 m
Spannweite 22.40 m
Form Box + 2 Pan
Hersteller OSCD
Bus-Typ OSC Star 2.4
Phasenstatus In Orbit
Besitzer/Staat OPTS/AU

Most Searched